Regional Weather Roundup
Issued by NWS New Orleans/Baton Rouge, LA

Home | Current Version | Previous Version | Graphics & Text | Print | Product List | Glossary On
Versions: 1 2 3 4 5 6 7 8 9 10 11 12 13 14 15 16 17 18 19 20 21 22 23 24 25 26 27 28 29 30 31 32 33 34 35 36 37 38 39 40 41 42 43 44 45 46 47 48 49 50
992
ASUS44 KLIX 300301
RWRLIX
NEW ORLEANS REGIONAL WEATHER ROUNDUP
NATIONAL WEATHER SERVICE NEW ORLEANS LA
1000 PM CDT TUE JUL 29 2014

NOTE: "FAIR" INDICATES FEW OR NO CLOUDS BELOW 12,000 FEET WITH NO
      SIGNIFICANT WEATHER AND/OR OBSTRUCTIONS TO VISIBILITY.
      SKY/WX - SKY CONDITION AND SIGNIFICANT WEATHER.
      TMP - AIR TEMPERATURE.     DP    - DEWPOINT TEMPERATURE.
      RH  - RELATIVE HUMIDITY.   PRES  - PRESSURE.
      HI  - HEAT INDEX.          WCI   - WIND CHILL INDEX.

*  THESE STATIONS ARE NOT NWS OR FAA STATIONS AND ARE NOT UNDER
   NWS QUALITY CONTROL.

LAZ038-040-048-061>063-065>067-069-300400-
SOUTHEAST LOUISIANA

CITY           SKY/WX    TMP DP  RH WIND       PRES   REMARKS
N.O. AUDUBON     N/A     82  64  54 MISG        N/A
N.O. INTL ARPT PTCLDY    80  63  55 N6        30.02R
N.O. LAKEFRONT CLEAR     84  65  52 N12       30.02R
N.O. DOWNTOWN*   N/A     84  61  45 N5        30.03R
SLIDELL        CLEAR     74  70  87 CALM      30.02R
BATON ROUGE    CLEAR     75  69  81 CALM      30.04R
BOOTHVILLE     PTCLDY    78  72  81 CALM      30.02R
BELLE CHASSE   MOCLDY    73  68  84 CALM      30.02R
BOGALUSA*        N/A     76  67  75 N6        30.05R
GALLIANO*      NOT AVBL
NEW ROADS*       N/A     75  71  86 CALM      30.04R
GONZALES*        N/A     73  72  98 CALM      30.03R
HAMMOND*       MOCLDY    75  68  78 CALM      30.05R
HOUMA*         CLEAR     77  66  70 CALM      30.03R
PORT FOURCHON* CLEAR     82  70  65 NE3       30.04R

$$

MSZ070-080>082-300400-
SOUTHERN MISSISSIPPI

CITY           SKY/WX    TMP DP  RH WIND       PRES   REMARKS
MCCOMB         CLEAR     78  65  63 N7        30.06R
GULFPORT       PTCLDY    81  67  62 W3        30.00R
BILOXI         PTCLDY    81  68  65 VRB2      30.01R
PASCAGOULA     CLOUDY    75  71  87 CALM      30.01R

$$

COASTAL OBSERVATIONS
LAKE AND NEARSHORE STATIONS

STATION/POSITION TIME  TEMP    WIND        PRES    WAVE
                       AIR SEA DIR/SP/G            HT/PER
                 (UTC) (F)     (DEG/KT/KT) (MB)    (FT/S)
PASCAGOULA       0200   81     320/  4/  5 1015.3
WAVELAND YACHT   0200   80     290/  4/  5 1015.5
GRAND ISLE       0200   84 87  360/  8/  9 1017.0
SOUTHWEST PASS   0200   82 85   30/  4/  4 1016.8
NEW CANAL        0200   85 85  360/  7/ 10 1016.8
SHELL BEACH      0200   85 83  330/ 10/ 11 1016.1

OFFSHORE STATIONS

STATION/POSITION TIME  TEMP    WIND        PRES    WAVE
                       AIR SEA DIR/SP/G            HT/PER
                 (UTC) (F)     (DEG/KT/KT) (MB)    (FT/S)
64 S DAUPHIN ISL 0216   83 86  330/  8/ 10 1016.3

$$




USA.gov is the U.S. government's official web portal to all federal, state and local government web resources and services.